{"data":{"norad_id":59265,"epoch":"2026-09-21T11:42:28.868832Z","epoch_age_seconds":76879,"freshness":"FRESH","line1":"1 59265U 24050M   26264.48783413  .00000098  00000+0  14029-4 0  9992","line2":"2 59265  53.1604 348.8717 0001074  87.4723 272.6403 15.34383682140562","mean_motion":15.34383682,"eccentricity":0.0001074,"inclination_deg":53.1604,"raan_deg":348.8717,"arg_perigee_deg":87.4723,"mean_anomaly_deg":272.6403,"bstar":1.4029e-5,"rev_number":14056,"period_min":93.848756141816,"perigee_km":462.017029721,"apogee_km":463.4864526226,"semimajor_km":6840.8887411718,"source":"CELESTRAK","updated_at":"2026-09-22T09:00:48.872651Z"}}